Location: Jackson Park
(37.2862°N, 79.9123°W)
Time: 13:56:17
(UTC+00:00)

Vanguard 3 - Pass Details

Date: 18 May 2026
Orbit: 507 x 3204 km, 33.3° (Epoch: 6 June)

Event Time Altitude Azimuth Distance (km) Brightness Sun altitude
Rises 16:37:27 0° 223° (SW) 5,647 11.5 70.5°
Reaches altitude 10° 16:40:51 10° 218° (SW) 4,953 11.4 70.8°
Maximum altitude 16:55:38 51° 148° (SSE) 3,563 12.0 71.8°
Drops below altitude 10° 17:13:58 10° 81° (E) 6,053 11.7 72.4°
Sets 17:18:38 0° 77° (ENE) 6,936 11.9 72.4°
